Location: Northcutt
(34.7304°N, 84.4305°W)
Time: 09:38:35
(UTC+00:00)

S-56A Canister/Altair - Pass Details

Date: 03 October 2022
Orbit: 638 x 2494 km, 38.9° (Epoch: 08 December)

Event Time Altitude Azimuth Distance (km) Brightness Sun altitude
Rises 09:16:30 0° 276° (W) 5,242 - -28.8°
Reaches altitude 10° 09:20:29 10° 279° (W) 3,954 - -28.0°
Exits shadow 09:27:06 41° 296° (WNW) 1,866 9.0 -26.7°
Maximum altitude 09:30:10 65° 0° (N) 1,314 8.6 -26.1°
Drops below altitude 10° 09:36:27 10° 83° (E) 2,631 11.3 -24.8°
Sets 09:38:38 0° 86° (E) 3,406 12.2 -24.4°
